Location: Hokitika
(42.7170°S, 170.9670°E)
Time: 14:49:16
(UTC+12:00)

ISS - Visible Passes

Search period start: 01 July 2022 00:00
Search period end: 11 July 2022 00:00
Orbit: 414 x 420 km, 51.6° (Epoch: 01 July)

Date Brightness Start Highest point End Pass type
(mag) Time Alt. Az. Time Alt. Az. Time Alt. Az.
01 Jul -2.0 18:56:32 10° SW 18:58:46 22° S 18:58:46 22° S visible
02 Jul -2.0 18:08:21 10° SW 18:10:59 20° S 18:12:40 15° SE visible
02 Jul -0.9 19:44:55 10° SW 19:45:36 15° SW 19:45:36 15° SW visible
03 Jul -2.9 18:56:46 10° SW 18:59:35 36° S 18:59:35 36° S visible
04 Jul -2.6 18:08:38 10° SW 18:11:39 28° SSE 18:13:41 16° ESE visible
04 Jul -1.3 19:45:15 10° WSW 19:46:37 22° WSW 19:46:37 22° WSW visible
05 Jul -3.9 18:56:58 10° SW 19:00:24 84° SSE 19:00:53 63° ENE visible
06 Jul -3.6 18:08:46 10° SW 18:12:07 53° SSE 18:15:22 11° ENE visible
06 Jul -1.3 19:45:59 10° W 19:48:20 21° NW 19:48:20 21° NW visible
07 Jul -2.2 18:57:22 10° WSW 19:00:32 36° NW 19:03:08 13° NNE visible
08 Jul -3.2 18:08:57 10° WSW 18:12:20 62° NW 18:15:41 10° NE visible
09 Jul -0.6 18:58:37 10° W 19:00:23 14° NW 19:02:09 10° NNW visible
10 Jul -1.0 18:09:31 10° W 18:12:16 23° NW 18:15:00 10° N visible
